WBANNO,USDM_WEEK,LONGITUDE,LATITUDE,SMVWC_5_CM_MEAN,SMANOM_5_CM_MEAN,SMPERC_5_CM_30COUNTS,SMPERC_5_CM_70COUNTS,SMVWC_10_CM_MEAN,SMANOM_10_CM_MEAN,SMPERC_10_CM_30COUNTS,SMPERC_10_CM_70COUNTS,SMVWC_20_CM_MEAN,SMANOM_20_CM_MEAN,SMPERC_20_CM_30COUNTS,SMPERC_20_CM_70COUNTS,SMVWC_50_CM_MEAN,SMANOM_50_CM_MEAN,SMPERC_50_CM_30COUNTS,SMPERC_50_CM_70COUNTS,SMVWC_100_CM_MEAN,SMANOM_100_CM_MEAN,SMPERC_100_CM_30COUNTS,SMPERC_100_CM_70COUNTS,SMVWC_TOP_CM_MEAN,SMANOM_TOP_CM_MEAN,SMPERC_TOP_CM_30COUNTS,SMPERC_TOP_CM_70COUNTS,SMVWC_COLUMN_CM_MEAN,SMANOM_COLUMN_CM_MEAN,SMPERC_COLUMN_CM_30COUNTS,SMPERC_COLUMN_CM_70COUNTS
03733,20110530,-79.47,39.01,,,,,,,,,,,,,,,,,,,,,,,,,,,,
03733,20110531,-79.47,39.01,,,,,,,,,,,,,,,,,,,,,,,,,,,,
03733,20110601,-79.47,39.01,,,,,,,,,,,,,,,,,,,,,,,,,,,,
03733,20110602,-79.47,39.01,,,,,,,,,,,,,,,,,,,,,,,,,,,,
03733,20110603,-79.47,39.01,,,,,,,,,,,,,,,,,,,,,,,,,,,,
03733,20110604,-79.47,39.01,0.297,0,0,0,0.375,0.02,0,0,0.41,0.27,0,0.861,0.342,-0.33,0,0,0.308,-1.84,1,0,0.336,0.03,0,0,0.346,-0.11,0,0
03733,20110605,-79.47,39.01,0.292,-0.03,0,0,0.371,0,0,0,0.408,0.24,0,0.733,0.342,-0.32,0,0,0.308,-1.84,1,0,0.331,0,0,0,0.344,-0.14,0,0
03733,20110606,-79.47,39.01,0.285,-0.07,0,0,0.366,-0.04,0,0,0.406,0.18,0,0.601,0.342,-0.31,0,0,0.308,-1.84,1,0,0.325,-0.04,0,0,0.341,-0.17,0,0
03733,20110607,-79.47,39.01,0.276,-0.12,0,0,0.359,-0.08,0,0,0.403,0.09,0,0.458,0.342,-0.31,0,0,0.308,-1.83,1,0,0.318,-0.09,0,0,0.338,-0.22,0,0
03733,20110608,-79.47,39.01,0.268,-0.18,0,0,0.352,-0.13,0,0,0.399,-0.02,0.03,0.315,0.342,-0.32,0.065,0,0.308,-1.82,1,0,0.31,-0.15,0,0,0.334,-0.28,0.065,0
03733,20110609,-79.47,39.01,0.259,-0.25,0.018,0,0.345,-0.19,0,0,0.395,-0.15,0.173,0.173,0.342,-0.34,0.19,0,0.307,-1.8,1,0,0.302,-0.21,0.018,0,0.33,-0.35,0.208,0
03733,20110610,-79.47,39.01,0.25,-0.32,0.107,0,0.337,-0.26,0.065,0,0.39,-0.29,0.315,0.065,0.342,-0.36,0.315,0,0.307,-1.77,1,0,0.294,-0.28,0.089,0,0.325,-0.42,0.351,0
03733,20110611,-79.47,39.01,0.249,-0.33,0.125,0.012,0.336,-0.28,0.119,0.048,0.388,-0.37,0.405,0.042,0.344,-0.3,0.405,0.042,0.309,-1.65,0.952,0,0.293,-0.3,0.125,0.024,0.325,-0.42,0.44,0.042
03733,20110612,-79.47,39.01,0.255,-0.29,0.125,0.012,0.342,-0.22,0.119,0.107,0.39,-0.33,0.405,0.179,0.349,-0.16,0.405,0.107,0.317,-1.37,0.81,0,0.299,-0.25,0.125,0.024,0.331,-0.35,0.44,0.071
03733,20110613,-79.47,39.01,0.26,-0.26,0.125,0.012,0.348,-0.18,0.119,0.107,0.393,-0.26,0.405,0.244,0.352,-0.08,0.405,0.107,0.325,-1.09,0.667,0,0.304,-0.21,0.125,0.024,0.335,-0.29,0.44,0.071
03733,20110614,-79.47,39.01,0.263,-0.24,0.125,0.012,0.353,-0.14,0.119,0.107,0.396,-0.19,0.405,0.244,0.354,-0.03,0.405,0.107,0.33,-0.88,0.589,0,0.308,-0.18,0.125,0.024,0.339,-0.23,0.44,0.071
03733,20110615,-79.47,39.01,0.266,-0.22,0.125,0.012,0.357,-0.1,0.119,0.107,0.399,-0.11,0.375,0.244,0.356,0.02,0.339,0.107,0.333,-0.73,0.589,0,0.312,-0.16,0.125,0.024,0.342,-0.2,0.375,0.071
03733,20110616,-79.47,39.01,0.268,-0.21,0.113,0.012,0.361,-0.07,0.119,0.107,0.403,-0.01,0.232,0.244,0.358,0.08,0.214,0.107,0.336,-0.61,0.589,0,0.315,-0.13,0.107,0.024,0.345,-0.16,0.232,0.071
03733,20110617,-79.47,39.01,0.272,-0.19,0.048,0.012,0.368,-0.01,0.054,0.107,0.407,0.1,0.089,0.244,0.36,0.14,0.089,0.107,0.339,-0.51,0.589,0,0.32,-0.09,0.036,0.024,0.349,-0.11,0.089,0.071
03733,20110618,-79.47,39.01,0.274,-0.17,0.03,0,0.373,0.03,0,0.06,0.41,0.18,0,0.202,0.359,0.1,0.006,0.065,0.338,-0.53,0.637,0,0.323,-0.07,0,0,0.351,-0.1,0,0.03
03733,20110619,-79.47,39.01,0.276,-0.15,0.03,0.012,0.376,0.04,0,0.107,0.412,0.23,0,0.208,0.359,0.11,0.012,0.06,0.334,-0.65,0.726,0,0.326,-0.05,0,0.036,0.351,-0.09,0,0.06
03733,20110620,-79.47,39.01,0.286,-0.08,0.03,0.095,0.383,0.1,0,0.25,0.417,0.36,0,0.286,0.367,0.36,0.012,0.202,0.334,-0.64,0.726,0,0.335,0.02,0,0.149,0.357,-0.01,0,0.202
03733,20110621,-79.47,39.01,0.3,0.03,0.03,0.238,0.391,0.17,0,0.393,0.422,0.48,0,0.429,0.376,0.65,0.012,0.345,0.338,-0.56,0.661,0.018,0.346,0.11,0,0.292,0.365,0.1,0,0.345
03733,20110622,-79.47,39.01,0.312,0.13,0.03,0.381,0.398,0.22,0,0.536,0.425,0.58,0,0.571,0.38,0.79,0.012,0.488,0.343,-0.41,0.518,0.077,0.355,0.19,0,0.435,0.372,0.2,0,0.488
03733,20110623,-79.47,39.01,0.325,0.23,0.024,0.47,0.406,0.28,0,0.601,0.429,0.68,0,0.714,0.382,0.86,0.012,0.577,0.349,-0.26,0.387,0.131,0.366,0.27,0,0.53,0.378,0.3,0,0.613
03733,20110624,-79.47,39.01,0.335,0.31,0,0.47,0.411,0.32,0,0.601,0.432,0.78,0,0.857,0.384,0.91,0.012,0.625,0.352,-0.22,0.387,0.131,0.373,0.34,0,0.53,0.383,0.36,0,0.613
03733,20110625,-79.47,39.01,0.341,0.36,0,0.47,0.413,0.34,0,0.601,0.435,0.85,0,1,0.385,0.96,0.006,0.625,0.354,-0.2,0.387,0.131,0.377,0.37,0,0.53,0.385,0.4,0,0.613
03733,20110626,-79.47,39.01,0.34,0.35,0,0.458,0.41,0.31,0,0.494,0.434,0.83,0,1,0.382,0.87,0,0.565,0.353,-0.24,0.44,0.131,0.375,0.35,0,0.494,0.384,0.38,0,0.554
03733,20110627,-79.47,39.01,0.332,0.29,0,0.375,0.404,0.25,0,0.351,0.43,0.72,0,1,0.374,0.61,0.006,0.423,0.347,-0.42,0.583,0.131,0.368,0.29,0,0.381,0.377,0.28,0,0.411
03733,20110628,-79.47,39.01,0.322,0.22,0,0.256,0.398,0.21,0,0.238,0.427,0.63,0,0.946,0.366,0.36,0.006,0.298,0.341,-0.64,0.726,0.113,0.36,0.23,0,0.268,0.371,0.18,0,0.286
03733,20110629,-79.47,39.01,0.32,0.2,0,0.155,0.398,0.22,0,0.238,0.427,0.63,0,0.946,0.365,0.32,0.006,0.256,0.339,-0.71,0.762,0.054,0.359,0.22,0,0.22,0.37,0.17,0,0.244
03733,20110630,-79.47,39.01,0.315,0.17,0,0.066,0.397,0.22,0,0.198,0.426,0.61,0,0.946,0.365,0.31,0.006,0.228,0.336,-0.81,0.85,0,0.356,0.2,0,0.126,0.368,0.14,0,0.12
03733,20110701,-79.47,39.01,0.309,0.12,0,0.066,0.394,0.2,0,0.198,0.425,0.58,0,0.946,0.365,0.31,0.012,0.18,0.334,-0.85,0.85,0,0.352,0.16,0,0.126,0.366,0.1,0,0.12
03733,20110702,-79.47,39.01,0.3,0.05,0.078,0.066,0.39,0.16,0,0.198,0.424,0.54,0,0.862,0.365,0.32,0.018,0.18,0.334,-0.86,0.85,0,0.345,0.11,0.012,0.126,0.363,0.06,0.006,0.12
03733,20110703,-79.47,39.01,0.29,-0.04,0.222,0.066,0.384,0.1,0,0.198,0.421,0.47,0,0.719,0.365,0.34,0.018,0.18,0.333,-0.89,0.85,0,0.337,0.03,0.126,0.126,0.359,-0.01,0.138,0.12
03733,20110704,-79.47,39.01,0.285,-0.07,0.287,0.066,0.382,0.09,0.036,0.246,0.421,0.48,0,0.653,0.367,0.38,0.012,0.216,0.334,-0.87,0.82,0,0.333,0,0.192,0.156,0.358,-0.02,0.204,0.156
03733,20110705,-79.47,39.01,0.289,-0.03,0.287,0.09,0.387,0.14,0.036,0.359,0.424,0.55,0,0.707,0.372,0.55,0.012,0.341,0.34,-0.65,0.677,0,0.338,0.05,0.192,0.222,0.362,0.06,0.204,0.281
03733,20110706,-79.47,39.01,0.286,-0.04,0.287,0.048,0.385,0.14,0.036,0.329,0.424,0.54,0,0.707,0.376,0.66,0.012,0.383,0.342,-0.57,0.641,0,0.336,0.04,0.192,0.138,0.363,0.08,0.204,0.293
03733,20110707,-79.47,39.01,0.283,-0.05,0.286,0.048,0.384,0.14,0.036,0.315,0.424,0.54,0,0.708,0.377,0.68,0.012,0.429,0.345,-0.46,0.56,0.042,0.334,0.03,0.19,0.137,0.363,0.09,0.202,0.31
03733,20110708,-79.47,39.01,0.279,-0.06,0.286,0.048,0.382,0.13,0.036,0.315,0.423,0.52,0,0.625,0.377,0.71,0.012,0.512,0.346,-0.43,0.56,0.042,0.331,0.02,0.19,0.137,0.362,0.09,0.202,0.31
03733,20110709,-79.47,39.01,0.285,0.02,0.208,0.048,0.388,0.2,0.036,0.429,0.426,0.59,0,0.69,0.384,0.92,0.006,0.655,0.351,-0.25,0.446,0.149,0.337,0.1,0.179,0.214,0.367,0.2,0.196,0.423
03733,20110710,-79.47,39.01,0.293,0.11,0.065,0.048,0.395,0.29,0.036,0.571,0.429,0.69,0,0.833,0.389,1.06,0.006,0.798,0.358,0.04,0.304,0.292,0.344,0.19,0.065,0.214,0.373,0.32,0.065,0.565
03733,20110711,-79.47,39.01,0.292,0.13,0,0.048,0.396,0.32,0,0.53,0.429,0.7,0,0.899,0.389,1.1,0.006,0.905,0.362,0.18,0.262,0.351,0.344,0.22,0,0.185,0.374,0.36,0,0.554
03733,20110712,-79.47,39.01,0.28,0.07,0,0,0.388,0.25,0,0.387,0.426,0.62,0,0.899,0.385,0.98,0.006,0.905,0.358,-0.01,0.405,0.351,0.334,0.15,0,0.089,0.367,0.28,0,0.411
03733,20110713,-79.47,39.01,0.27,0.01,0,0,0.38,0.19,0,0.274,0.424,0.57,0,0.899,0.38,0.87,0.006,0.905,0.352,-0.31,0.548,0.351,0.325,0.09,0,0.077,0.361,0.2,0,0.298
03733,20110714,-79.47,39.01,0.27,0.04,0,0.048,0.381,0.2,0,0.363,0.424,0.59,0,0.887,0.38,0.87,0.006,0.94,0.346,-0.57,0.673,0.31,0.326,0.11,0,0.149,0.36,0.2,0,0.375
03733,20110715,-79.47,39.01,0.272,0.08,0,0.048,0.385,0.23,0,0.429,0.425,0.64,0,0.97,0.38,0.89,0,0.988,0.345,-0.67,0.673,0.31,0.328,0.15,0,0.149,0.361,0.24,0,0.387
03733,20110716,-79.47,39.01,0.265,0.04,0,0.048,0.379,0.19,0,0.315,0.423,0.6,0,0.988,0.374,0.71,0,0.958,0.34,-0.93,0.786,0.202,0.322,0.12,0,0.071,0.356,0.17,0,0.274
03733,20110717,-79.47,39.01,0.257,-0.01,0,0.048,0.373,0.14,0,0.173,0.42,0.55,0,0.917,0.37,0.61,0,0.899,0.333,-1.28,0.929,0.06,0.315,0.07,0,0.071,0.351,0.09,0,0.131
03733,20110718,-79.47,39.01,0.251,-0.04,0,0.048,0.367,0.1,0,0.167,0.418,0.5,0,0.774,0.369,0.59,0,0.839,0.328,-1.52,1,0,0.309,0.03,0,0.071,0.346,0.04,0,0.107
03733,20110719,-79.47,39.01,0.248,-0.06,0.024,0.048,0.366,0.09,0,0.185,0.416,0.47,0,0.685,0.368,0.57,0,0.81,0.326,-1.61,1,0,0.307,0.02,0,0.071,0.345,0.02,0,0.107
03733,20110720,-79.47,39.01,0.253,0,0.024,0.048,0.372,0.15,0,0.327,0.418,0.52,0,0.685,0.368,0.56,0,0.738,0.325,-1.61,1,0,0.313,0.08,0,0.107,0.347,0.07,0,0.125
03733,20110721,-79.47,39.01,0.248,-0.04,0.024,0,0.369,0.14,0,0.256,0.416,0.48,0,0.696,0.368,0.55,0,0.607,0.325,-1.62,1,0,0.309,0.05,0,0.036,0.345,0.04,0,0.03
03733,20110722,-79.47,39.01,0.242,-0.08,0.024,0,0.364,0.1,0,0.19,0.413,0.42,0,0.607,0.367,0.55,0,0.583,0.324,-1.65,1,0,0.303,0.01,0,0.036,0.342,-0.01,0,0.018
03733,20110723,-79.47,39.01,0.237,-0.12,0.113,0,0.358,0.05,0,0.19,0.41,0.36,0,0.464,0.367,0.55,0,0.601,0.323,-1.67,1,0,0.298,-0.03,0,0.036,0.339,-0.06,0,0.018
03733,20110724,-79.47,39.01,0.233,-0.15,0.256,0,0.351,0.01,0,0.19,0.407,0.3,0,0.393,0.367,0.56,0,0.649,0.322,-1.67,1,0,0.292,-0.08,0.083,0.036,0.336,-0.1,0.089,0.018
03733,20110725,-79.47,39.01,0.238,-0.09,0.256,0,0.359,0.08,0,0.327,0.41,0.37,0,0.53,0.368,0.58,0,0.702,0.322,-1.69,1,0,0.298,-0.01,0.083,0.101,0.339,-0.04,0.089,0.048
03733,20110726,-79.47,39.01,0.244,-0.02,0.232,0.048,0.365,0.15,0,0.452,0.412,0.45,0,0.619,0.368,0.59,0,0.732,0.322,-1.69,1,0,0.305,0.07,0.083,0.232,0.342,0.02,0.089,0.167
03733,20110727,-79.47,39.01,0.241,-0.03,0.232,0.048,0.362,0.13,0,0.393,0.41,0.45,0,0.619,0.369,0.61,0,0.792,0.322,-1.69,1,0,0.302,0.05,0.083,0.232,0.341,0.01,0.089,0.149
03733,20110728,-79.47,39.01,0.239,-0.04,0.232,0.048,0.359,0.12,0,0.363,0.409,0.44,0,0.619,0.369,0.61,0,0.887,0.322,-1.71,1,0,0.299,0.04,0.083,0.232,0.34,0,0.089,0.149
03733,20110729,-79.47,39.01,0.237,-0.04,0.232,0.048,0.356,0.1,0,0.363,0.409,0.44,0,0.643,0.369,0.62,0,0.923,0.322,-1.73,1,0,0.297,0.03,0.083,0.232,0.339,0,0.089,0.149
03733,20110730,-79.47,39.01,0.236,-0.04,0.208,0.048,0.354,0.09,0,0.363,0.408,0.43,0,0.643,0.368,0.62,0,0.935,0.322,-1.74,1,0,0.295,0.03,0.083,0.232,0.338,-0.01,0.089,0.149
03733,20110731,-79.47,39.01,0.235,-0.04,0.208,0.048,0.353,0.09,0,0.363,0.407,0.44,0,0.643,0.368,0.61,0,0.887,0.323,-1.75,1,0,0.294,0.03,0.024,0.232,0.337,0,0.054,0.149
03733,20110801,-79.47,39.01,0.224,-0.13,0.351,0.048,0.337,-0.04,0.119,0.226,0.4,0.28,0.071,0.506,0.367,0.58,0,0.81,0.322,-1.76,1,0,0.28,-0.08,0.167,0.167,0.33,-0.11,0.185,0.119
03733,20110802,-79.47,39.01,0.21,-0.27,0.494,0,0.317,-0.2,0.262,0.083,0.391,0.04,0.214,0.363,0.366,0.55,0,0.78,0.322,-1.79,1,0,0.264,-0.24,0.31,0.036,0.321,-0.26,0.327,0
03733,20110803,-79.47,39.01,0.197,-0.39,0.637,0,0.298,-0.35,0.405,0,0.38,-0.24,0.357,0.22,0.364,0.52,0,0.667,0.321,-1.81,1,0,0.248,-0.38,0.452,0,0.312,-0.4,0.47,0
03733,20110804,-79.47,39.01,0.187,-0.48,0.78,0,0.282,-0.47,0.548,0,0.37,-0.51,0.5,0.077,0.362,0.49,0,0.56,0.321,-1.83,1,0,0.234,-0.49,0.595,0,0.304,-0.52,0.613,0
03733,20110805,-79.47,39.01,0.179,-0.55,0.922,0,0.269,-0.56,0.689,0,0.359,-0.78,0.641,0,0.36,0.44,0,0.419,0.32,-1.84,1,0,0.224,-0.58,0.737,0,0.297,-0.62,0.754,0
03733,20110806,-79.47,39.01,0.171,-0.61,1,0,0.257,-0.64,0.832,0,0.348,-1.06,0.784,0,0.358,0.38,0,0.275,0.319,-1.85,1,0,0.214,-0.65,0.88,0,0.291,-0.71,0.898,0
03733,20110807,-79.47,39.01,0.17,-0.62,0.964,0,0.257,-0.62,0.85,0,0.346,-1.12,0.82,0,0.356,0.34,0,0.192,0.319,-1.85,1,0,0.214,-0.65,0.886,0,0.289,-0.72,0.88,0
03733,20110808,-79.47,39.01,0.177,-0.54,0.82,0,0.266,-0.54,0.731,0,0.348,-1.04,0.749,0.084,0.354,0.31,0,0.132,0.318,-1.84,1,0,0.222,-0.56,0.743,0,0.293,-0.65,0.749,0
03733,20110809,-79.47,39.01,0.186,-0.46,0.677,0,0.277,-0.44,0.587,0,0.354,-0.89,0.605,0.084,0.353,0.28,0,0.018,0.318,-1.81,1,0,0.231,-0.47,0.599,0,0.297,-0.56,0.605,0
03733,20110810,-79.47,39.01,0.198,-0.33,0.533,0,0.292,-0.32,0.443,0,0.363,-0.65,0.461,0.21,0.352,0.26,0,0,0.318,-1.77,1,0,0.245,-0.34,0.455,0,0.304,-0.43,0.461,0
03733,20110811,-79.47,39.01,0.208,-0.23,0.389,0,0.306,-0.2,0.299,0,0.372,-0.4,0.317,0.257,0.351,0.25,0,0,0.318,-1.74,1,0,0.257,-0.22,0.311,0,0.311,-0.32,0.317,0
03733,20110812,-79.47,39.01,0.216,-0.14,0.25,0,0.318,-0.1,0.161,0,0.381,-0.15,0.179,0.256,0.351,0.25,0,0,0.319,-1.68,1,0,0.267,-0.12,0.173,0,0.317,-0.21,0.179,0
03733,20110813,-79.47,39.01,0.223,-0.07,0.107,0,0.329,-0.01,0.018,0,0.391,0.11,0.036,0.256,0.351,0.25,0.006,0,0.319,-1.63,1,0,0.276,-0.04,0.03,0,0.323,-0.11,0.036,0
03733,20110814,-79.47,39.01,0.225,-0.05,0.107,0,0.328,-0.01,0,0,0.392,0.15,0,0.256,0.351,0.25,0.006,0,0.32,-1.58,1,0,0.276,-0.03,0.006,0,0.323,-0.1,0.024,0
03733,20110815,-79.47,39.01,0.227,-0.03,0.107,0,0.326,-0.02,0,0,0.391,0.12,0,0.208,0.35,0.25,0.012,0,0.32,-1.54,1,0,0.276,-0.02,0.006,0,0.323,-0.1,0.024,0
03733,20110816,-79.47,39.01,0.229,0,0.107,0,0.327,0,0,0,0.392,0.15,0,0.351,0.35,0.25,0.012,0.042,0.321,-1.51,1,0,0.278,0,0.006,0,0.324,-0.07,0.024,0
03733,20110817,-79.47,39.01,0.228,0,0.107,0,0.325,0,0,0,0.392,0.14,0,0.292,0.349,0.25,0.018,0.101,0.321,-1.48,1,0,0.276,0,0.006,0,0.323,-0.07,0.024,0
03733,20110818,-79.47,39.01,0.227,-0.01,0.107,0,0.323,-0.01,0,0,0.391,0.12,0,0.244,0.349,0.26,0.018,0.179,0.321,-1.46,1,0,0.275,0,0.006,0,0.322,-0.08,0.024,0
03733,20110819,-79.47,39.01,0.225,-0.02,0.107,0,0.321,-0.01,0,0,0.39,0.1,0,0.244,0.349,0.28,0.018,0.304,0.322,-1.46,1,0,0.273,-0.01,0.006,0,0.321,-0.09,0.024,0
03733,20110820,-79.47,39.01,0.224,-0.03,0.119,0,0.32,0,0,0,0.389,0.08,0,0.244,0.349,0.3,0.012,0.405,0.322,-1.46,1,0,0.272,-0.01,0.006,0,0.321,-0.09,0.024,0
03733,20110821,-79.47,39.01,0.223,-0.04,0.06,0,0.319,0,0,0,0.389,0.07,0,0.244,0.349,0.3,0.012,0.476,0.322,-1.46,1,0,0.271,-0.01,0,0,0.32,-0.09,0,0
03733,20110822,-79.47,39.01,0.221,-0.06,0.083,0,0.314,-0.02,0,0,0.386,0,0,0.208,0.349,0.32,0.006,0.56,0.322,-1.46,1,0,0.268,-0.03,0,0,0.318,-0.1,0,0
03733,20110823,-79.47,39.01,0.219,-0.08,0.083,0,0.309,-0.05,0,0,0.381,-0.11,0,0.065,0.349,0.32,0.006,0.583,0.322,-1.46,1,0,0.264,-0.06,0,0,0.316,-0.13,0,0
03733,20110824,-79.47,39.01,0.215,-0.12,0.083,0,0.303,-0.1,0,0,0.376,-0.22,0.048,0,0.349,0.31,0,0.536,0.322,-1.47,1,0,0.259,-0.1,0,0,0.313,-0.17,0,0
03733,20110825,-79.47,39.01,0.211,-0.15,0.083,0,0.297,-0.13,0,0,0.371,-0.32,0.185,0,0.348,0.3,0,0.536,0.322,-1.47,1,0,0.254,-0.14,0,0,0.31,-0.21,0,0
03733,20110826,-79.47,39.01,0.217,-0.1,0.083,0,0.302,-0.09,0,0,0.373,-0.28,0.196,0.125,0.351,0.36,0,0.536,0.329,-1.15,0.875,0.125,0.259,-0.09,0,0,0.314,-0.13,0,0.03
03733,20110827,-79.47,39.01,0.223,-0.04,0.071,0,0.307,-0.05,0,0,0.376,-0.22,0.196,0.167,0.353,0.41,0,0.577,0.337,-0.76,0.732,0.268,0.265,-0.03,0,0,0.319,-0.05,0,0.03
03733,20110828,-79.47,39.01,0.231,0.03,0.024,0,0.314,0,0,0,0.38,-0.14,0.196,0.167,0.355,0.45,0,0.649,0.343,-0.44,0.589,0.339,0.272,0.03,0,0,0.325,0.02,0,0.03
03733,20110829,-79.47,39.01,0.233,0.04,0,0,0.32,0.04,0,0,0.384,-0.04,0.196,0.167,0.357,0.49,0,0.708,0.347,-0.25,0.5,0.339,0.276,0.06,0,0,0.328,0.07,0,0.03
03733,20110830,-79.47,39.01,0.236,0.07,0,0,0.327,0.09,0,0,0.39,0.07,0.196,0.268,0.358,0.53,0,0.786,0.35,-0.12,0.5,0.339,0.282,0.1,0,0,0.332,0.13,0,0.03
03733,20110831,-79.47,39.01,0.242,0.11,0,0,0.335,0.15,0,0,0.396,0.19,0.149,0.411,0.36,0.58,0,0.917,0.352,0.01,0.5,0.339,0.288,0.16,0,0,0.337,0.2,0,0.03
03733,20110901,-79.47,39.01,0.248,0.16,0,0,0.343,0.21,0,0,0.402,0.32,0.012,0.44,0.362,0.63,0,0.976,0.354,0.14,0.5,0.339,0.295,0.21,0,0,0.342,0.26,0,0.03
03733,20110902,-79.47,39.01,0.25,0.18,0,0.012,0.345,0.22,0,0.054,0.404,0.35,0,0.446,0.363,0.64,0,0.988,0.352,0.03,0.542,0.256,0.298,0.22,0,0,0.343,0.27,0,0.107
03733,20110903,-79.47,39.01,0.254,0.21,0,0.012,0.349,0.24,0,0.083,0.407,0.38,0,0.548,0.363,0.66,0,0.982,0.351,-0.03,0.542,0.256,0.301,0.24,0,0,0.345,0.29,0,0.22
03733,20110904,-79.47,39.01,0.255,0.21,0,0.012,0.351,0.26,0,0.083,0.408,0.41,0,0.69,0.364,0.69,0,0.982,0.349,-0.08,0.542,0.208,0.303,0.25,0,0,0.346,0.29,0,0.22
03733,20110905,-79.47,39.01,0.261,0.26,0,0.107,0.357,0.31,0,0.179,0.413,0.48,0,0.827,0.372,0.91,0,0.982,0.353,0.1,0.488,0.304,0.309,0.29,0,0.095,0.351,0.37,0,0.315
03733,20110906,-79.47,39.01,0.269,0.33,0,0.25,0.365,0.37,0,0.321,0.418,0.57,0,0.869,0.384,1.2,0,0.982,0.36,0.43,0.345,0.446,0.317,0.35,0,0.238,0.359,0.48,0,0.458
03733,20110907,-79.47,39.01,0.285,0.47,0,0.393,0.377,0.47,0,0.464,0.424,0.68,0,0.869,0.395,1.49,0,0.982,0.367,0.78,0.202,0.589,0.331,0.46,0,0.381,0.37,0.63,0,0.601
03733,20110908,-79.47,39.01,0.297,0.58,0,0.536,0.385,0.54,0,0.607,0.428,0.76,0,0.982,0.404,1.71,0,0.988,0.374,1.14,0.06,0.732,0.341,0.55,0,0.524,0.378,0.74,0,0.744
03733,20110909,-79.47,39.01,0.301,0.62,0,0.667,0.388,0.56,0,0.696,0.429,0.78,0,0.994,0.406,1.75,0,0.994,0.379,1.43,0,0.833,0.345,0.58,0,0.667,0.381,0.79,0,0.78
03733,20110910,-79.47,39.01,0.305,0.66,0,0.81,0.39,0.59,0,0.81,0.429,0.78,0,0.994,0.407,1.77,0,1,0.382,1.62,0,0.833,0.348,0.61,0,0.81,0.383,0.82,0,0.81
03733,20110911,-79.47,39.01,0.31,0.7,0,0.917,0.393,0.61,0,0.952,0.429,0.79,0,0.994,0.407,1.76,0,0.994,0.385,1.78,0,0.952,0.351,0.65,0,0.952,0.385,0.85,0,0.952
03733,20110912,-79.47,39.01,0.308,0.68,0,0.821,0.39,0.59,0,1,0.426,0.74,0,1,0.4,1.57,0,0.988,0.382,1.67,0,0.881,0.349,0.63,0,0.935,0.381,0.8,0,0.994
03733,20110913,-79.47,39.01,0.3,0.61,0,0.679,0.382,0.52,0,0.893,0.42,0.65,0,1,0.39,1.29,0,0.982,0.377,1.41,0,0.738,0.341,0.56,0,0.792,0.374,0.69,0,0.863
03733,20110914,-79.47,39.01,0.284,0.47,0,0.536,0.37,0.42,0,0.75,0.413,0.53,0,1,0.379,1.01,0,0.982,0.37,1.08,0.113,0.595,0.327,0.44,0,0.649,0.363,0.54,0,0.72
03733,20110915,-79.47,39.01,0.273,0.37,0,0.41,0.363,0.36,0,0.633,0.409,0.45,0,0.898,0.371,0.8,0,0.982,0.363,0.71,0.247,0.458,0.318,0.36,0,0.524,0.356,0.43,0,0.596
03733,20110916,-79.47,39.01,0.272,0.36,0,0.41,0.363,0.35,0,0.633,0.407,0.41,0,0.898,0.369,0.71,0,0.982,0.355,0.29,0.392,0.313,0.317,0.35,0,0.524,0.353,0.39,0,0.596
03733,20110917,-79.47,39.01,0.272,0.34,0,0.392,0.362,0.33,0,0.633,0.405,0.39,0,0.898,0.367,0.66,0,0.982,0.347,-0.14,0.536,0.169,0.317,0.33,0,0.47,0.35,0.35,0,0.56
03733,20110918,-79.47,39.01,0.271,0.33,0,0.301,0.361,0.32,0,0.536,0.404,0.37,0,0.898,0.366,0.62,0,0.988,0.341,-0.48,0.681,0.024,0.316,0.31,0,0.331,0.349,0.32,0,0.416
03733,20110919,-79.47,39.01,0.27,0.31,0,0.301,0.36,0.3,0,0.392,0.403,0.36,0,0.898,0.365,0.58,0,0.994,0.338,-0.65,0.825,0,0.315,0.29,0,0.253,0.347,0.29,0,0.277
03733,20110920,-79.47,39.01,0.268,0.29,0,0.305,0.359,0.28,0,0.36,0.402,0.35,0,0.884,0.365,0.55,0,0.994,0.336,-0.77,0.97,0,0.313,0.27,0,0.256,0.346,0.26,0,0.268
03733,20110921,-79.47,39.01,0.274,0.33,0,0.384,0.36,0.28,0,0.36,0.402,0.36,0,0.872,0.364,0.52,0,0.988,0.335,-0.82,1,0,0.317,0.28,0,0.256,0.347,0.26,0,0.268
03733,20110922,-79.47,39.01,0.281,0.37,0,0.367,0.362,0.28,0,0.337,0.403,0.37,0,0.976,0.364,0.49,0,0.952,0.334,-0.83,1,0,0.321,0.3,0,0.241,0.349,0.27,0,0.253
03733,20110923,-79.47,39.01,0.278,0.35,0,0.223,0.358,0.24,0,0.193,0.402,0.35,0,0.946,0.363,0.46,0,0.873,0.334,-0.84,1,0,0.318,0.27,0,0.096,0.347,0.24,0,0.108
03733,20110924,-79.47,39.01,0.281,0.36,0,0.205,0.358,0.22,0,0.127,0.402,0.34,0,0.91,0.363,0.44,0,0.729,0.334,-0.84,1,0,0.32,0.27,0,0.114,0.348,0.23,0,0.078
03733,20110925,-79.47,39.01,0.288,0.4,0,0.331,0.36,0.22,0,0.211,0.403,0.35,0,0.91,0.363,0.42,0,0.614,0.334,-0.83,1,0,0.324,0.3,0,0.253,0.35,0.25,0,0.223
03733,20110926,-79.47,39.01,0.296,0.45,0,0.476,0.362,0.23,0,0.223,0.404,0.35,0,0.91,0.363,0.4,0,0.554,0.334,-0.82,1,0,0.329,0.33,0,0.398,0.352,0.26,0,0.331
03733,20110927,-79.47,39.01,0.302,0.49,0,0.554,0.365,0.23,0,0.22,0.405,0.36,0,0.923,0.363,0.4,0,0.565,0.334,-0.81,1,0,0.334,0.36,0,0.417,0.354,0.29,0,0.333
03733,20110928,-79.47,39.01,0.307,0.52,0,0.619,0.368,0.24,0,0.351,0.408,0.4,0,0.935,0.364,0.41,0,0.565,0.334,-0.79,1,0,0.338,0.39,0,0.56,0.356,0.31,0,0.476
03733,20110929,-79.47,39.01,0.312,0.54,0,0.762,0.371,0.25,0,0.351,0.41,0.42,0,0.935,0.364,0.41,0,0.601,0.335,-0.74,1,0,0.341,0.4,0,0.69,0.358,0.33,0,0.619
03733,20110930,-79.47,39.01,0.316,0.56,0,0.905,0.373,0.25,0,0.351,0.412,0.45,0,0.964,0.364,0.41,0,0.679,0.336,-0.68,1,0,0.345,0.42,0,0.804,0.36,0.35,0,0.732
03733,20111001,-79.47,39.01,0.318,0.56,0,0.935,0.374,0.24,0,0.315,0.413,0.47,0,1,0.365,0.41,0,0.798,0.336,-0.63,1,0,0.346,0.43,0,0.762,0.361,0.36,0,0.696
03733,20111002,-79.47,39.01,0.323,0.58,0,0.935,0.377,0.25,0,0.327,0.415,0.52,0,1,0.369,0.49,0,0.911,0.34,-0.43,0.929,0.065,0.35,0.45,0,0.762,0.365,0.41,0,0.696
03733,20111003,-79.47,39.01,0.331,0.63,0,0.935,0.382,0.28,0,0.458,0.419,0.6,0,1,0.378,0.66,0,0.97,0.348,-0.03,0.786,0.208,0.356,0.49,0,0.762,0.371,0.51,0,0.732
03733,20111004,-79.47,39.01,0.342,0.7,0,0.994,0.388,0.32,0,0.601,0.423,0.69,0,1,0.388,0.85,0,0.97,0.356,0.35,0.643,0.351,0.365,0.56,0,0.881,0.379,0.62,0,0.869
03733,20111005,-79.47,39.01,0.348,0.73,0,0.994,0.39,0.33,0,0.613,0.426,0.75,0,1,0.397,1,0,0.976,0.364,0.72,0.5,0.494,0.369,0.59,0,0.881,0.385,0.7,0,0.869
03733,20111006,-79.47,39.01,0.353,0.76,0,0.994,0.393,0.34,0,0.756,0.428,0.79,0,1,0.402,1.09,0,0.976,0.371,1.08,0.357,0.637,0.373,0.61,0,0.893,0.389,0.77,0,0.869
03733,20111007,-79.47,39.01,0.356,0.77,0,0.994,0.394,0.35,0,0.774,0.43,0.83,0,1,0.404,1.13,0,0.976,0.379,1.42,0.214,0.78,0.375,0.63,0,0.923,0.393,0.81,0,0.899
03733,20111008,-79.47,39.01,0.356,0.76,0,0.958,0.395,0.34,0,0.732,0.43,0.83,0,1,0.406,1.15,0,0.994,0.387,1.77,0.071,0.923,0.376,0.62,0,0.911,0.395,0.83,0,1
03733,20111009,-79.47,39.01,0.348,0.68,0,0.815,0.391,0.3,0,0.589,0.427,0.77,0,1,0.403,1.07,0,0.94,0.39,1.86,0,1,0.369,0.56,0,0.768,0.392,0.78,0,0.935
03733,20111010,-79.47,39.01,0.336,0.58,0,0.673,0.385,0.24,0,0.446,0.423,0.68,0,0.982,0.394,0.9,0,0.869,0.385,1.61,0,0.875,0.361,0.49,0,0.625,0.385,0.66,0,0.792
03733,20111011,-79.47,39.01,0.322,0.46,0,0.53,0.378,0.17,0,0.304,0.418,0.58,0,0.905,0.385,0.7,0,0.75,0.378,1.32,0.101,0.732,0.35,0.38,0,0.482,0.376,0.52,0,0.649
03733,20111012,-79.47,39.01,0.31,0.35,0,0.417,0.372,0.09,0,0.161,0.414,0.47,0,0.762,0.376,0.51,0,0.607,0.37,1,0.244,0.589,0.341,0.29,0,0.339,0.368,0.38,0,0.506
03733,20111013,-79.47,39.01,0.308,0.33,0,0.417,0.37,0.06,0,0.018,0.411,0.41,0,0.738,0.371,0.4,0,0.464,0.362,0.67,0.387,0.446,0.339,0.27,0,0.315,0.364,0.31,0,0.464
03733,20111014,-79.47,39.01,0.31,0.33,0,0.417,0.37,0.06,0,0.06,0.41,0.39,0,0.738,0.368,0.34,0,0.345,0.354,0.34,0.53,0.304,0.34,0.28,0,0.315,0.362,0.27,0,0.423
03733,20111015,-79.47,39.01,0.317,0.37,0,0.458,0.374,0.1,0,0.202,0.412,0.46,0,0.738,0.374,0.51,0,0.351,0.351,0.17,0.536,0.292,0.345,0.33,0,0.405,0.366,0.32,0,0.423
03733,20111016,-79.47,39.01,0.324,0.41,0,0.601,0.377,0.13,0,0.262,0.415,0.52,0,0.738,0.38,0.69,0,0.405,0.352,0.11,0.536,0.292,0.351,0.36,0,0.548,0.37,0.38,0,0.488
03733,20111017,-79.47,39.01,0.331,0.45,0,0.708,0.38,0.15,0,0.262,0.417,0.57,0,0.756,0.382,0.74,0,0.47,0.357,0.18,0.536,0.417,0.356,0.4,0,0.601,0.373,0.41,0,0.631
03733,20111018,-79.47,39.01,0.338,0.48,0,0.708,0.384,0.17,0,0.262,0.418,0.59,0,0.833,0.383,0.76,0,0.583,0.363,0.31,0.435,0.56,0.361,0.42,0,0.601,0.377,0.44,0,0.643
03733,20111019,-79.47,39.01,0.342,0.49,0,0.679,0.386,0.18,0,0.262,0.419,0.6,0,0.869,0.383,0.77,0,0.679,0.368,0.41,0.292,0.625,0.364,0.42,0,0.601,0.38,0.45,0,0.643
03733,20111020,-79.47,39.01,0.34,0.44,0,0.542,0.387,0.16,0,0.262,0.419,0.58,0,0.786,0.384,0.77,0,0.708,0.371,0.45,0.149,0.625,0.363,0.37,0,0.482,0.38,0.41,0,0.542
03733,20111021,-79.47,39.01,0.341,0.42,0,0.464,0.388,0.16,0,0.208,0.42,0.57,0,0.768,0.384,0.76,0,0.685,0.372,0.46,0.101,0.625,0.364,0.34,0,0.375,0.381,0.37,0,0.44
03733,20111022,-79.47,39.01,0.34,0.39,0,0.464,0.388,0.13,0,0.071,0.419,0.52,0,0.768,0.378,0.55,0,0.56,0.366,0.32,0.232,0.494,0.364,0.3,0,0.286,0.378,0.28,0,0.298
03733,20111023,-79.47,39.01,0.34,0.36,0,0.399,0.387,0.11,0,0.012,0.418,0.47,0,0.768,0.372,0.36,0,0.464,0.36,0.15,0.375,0.351,0.364,0.27,0,0.143,0.375,0.19,0,0.155